Flag for Brazil Weather past 2 weeks in Londrina, Paraná, Brazil

Now
75 °F

Clear.


Feels Like: 75 °F
Forecast: 69 / 90 °F
Wind: 2 mph from Southeast

Location: Londrina Aeroporto

Current Time: Dec 29, 2014 at 4:03:03 AM

Latest Report: Dec 29, 2014 at 3:00 AM


Visibility: 10 mi

Pressure: 29.89 "Hg

Humidity: 83%

Dew point: 70 °F

Location of LondrinaLocation

Historic Weather in Londrina — Graph

°F

Londrina temperature yesterday

Maximum temperature yesterday: 93 °F (at 2:00 PM)
Minimum temperature yesterday: 75 °F (at 4:00 AM)
Average temperature yesterday: 82 °F

Past Weeks' High & Low Weather Summary

 TemperatureHumidityPressure
High93 °F (Dec 28, 2:00 PM)100% (Dec 22, 12:00 AM)30.15 "Hg (Dec 22, 12:00 AM)
Low63 °F (Dec 16, 7:00 AM)33% (Dec 16, 6:00 PM)29.74 "Hg (Dec 19, 5:00 PM)
Average77 °F74%29.94 "Hg
* Reported Dec 14 3:00 AM — Dec 29 3:00 AM, Londrina, Weather by CustomWeather, © 2014

Note: Actual official high and low records may vary slightly from our data, if they occured in-between our weather recording intervals... More about our weather records

Advertising

Londrina weather history for previous 24 hours

 ConditionsComfort  
Time TempWeatherWind HumidityBarometerVisibility
3:00 AM
Dec 29
75 °FClear.2 mph83%29.89 "Hg10 mi
2:00 AM77 °FClear.1 mph74%29.89 "Hg10 mi
1:00 AM77 °FClear.3 mph79%29.92 "Hg10 mi
12:00 AM77 °FClear.6 mph79%29.95 "Hg10 mi
11:00 PM
Dec 28
79 °FPassing clouds.5 mph70%29.95 "HgN/A
10:00 PM77 °FPassing clouds.5 mph74%29.92 "HgN/A
9:00 PM79 °FPassing clouds.5 mph74%29.89 "HgN/A
8:00 PM81 °FPassing clouds.5 mph66%29.89 "HgN/A
7:00 PM84 °FScattered clouds.8 mph66%29.86 "HgN/A
6:00 PM90 °FPassing clouds.5 mph52%29.86 "HgN/A
5:00 PM90 °FPassing clouds.10 mph49%29.86 "HgN/A
4:00 PM86 °FPassing clouds.7 mph49%29.89 "HgN/A
3:00 PM88 °FPassing clouds.15 mph46%29.95 "HgN/A
2:00 PM93 °FPassing clouds.13 mph44%29.92 "HgN/A
1:00 PM91 °FPassing clouds.20 mph44%29.95 "HgN/A
12:00 PM91 °FScattered clouds.8 mph49%29.98 "HgN/A
11:00 AM88 °FPassing clouds.7 mph59%29.98 "HgN/A
10:00 AM86 °FSunny.3 mph62%30.01 "Hg10 mi
9:00 AM82 °FSunny.1 mph70%29.98 "Hg10 mi
8:00 AM77 °FSunny.2 mph83%29.98 "Hg10 mi
7:00 AM75 °FPassing clouds.3 mph83%29.98 "HgN/A
6:00 AM75 °FClear.2 mph89%29.95 "Hg10 mi
5:00 AM75 °FClear.2 mph89%29.95 "Hg10 mi
4:00 AM75 °FClear.3 mph89%29.95 "Hg10 mi
Weather by CustomWeather, © 2014

See weather overviewHow to use our weather pages